This is the latest recevied weather packets stored in our database for station/object KQ4PPF. If no packets are shown the sender has not sent any weather packets the latest 10 day(s).
| Time | Temp. | Humidity | Pressure | Rain* | Wind** | Luminosity | Snow |
|---|---|---|---|---|---|---|---|
| 1788446389 | 31.67° C | 70% | 1018.1 hPa | 0 mm | - | 367 W/m² | - |
| 1788446085 | 31.67° C | 69% | 1017.9 hPa | 0 mm | - | 144 W/m² | - |
| 1788445780 | 31.67° C | 71% | 1018.3 hPa | 0 mm | - | 289 W/m² | - |
| 1788445476 | 31.11° C | 75% | 1018 hPa | 0 mm | - | 544 W/m² | - |
| 1788445172 | 32.22° C | 71% | 1018.1 hPa | 0 mm | - | 527 W/m² | - |
| 1788444867 | 31.67° C | 73% | 1017.9 hPa | 0 mm | - | 526 W/m² | - |
| 1788444563 | 30.56° C | 75% | 1018.2 hPa | 0 mm | - | 379 W/m² | - |
| 1788444258 | 31.11° C | 74% | 1017.9 hPa | 0 mm | - | 180 W/m² | - |
| 1788443953 | 31.11° C | 73% | 1017.8 hPa | 0 mm | - | 422 W/m² | - |
| 1788443649 | 30.56° C | 78% | 1017.8 hPa | 0 mm | - | 425 W/m² | - |
| 1788443348 | 30° C | 79% | 1018 hPa | 0 mm | - | 338 W/m² | - |
| 1788443043 | 30.56° C | 77% | 1017.9 hPa | 0 mm | - | 402 W/m² | - |
| 1788442741 | 30.56° C | 78% | 1018 hPa | 0 mm | - | 407 W/m² | - |
| 1788442432 | 30° C | 79% | 1017.8 hPa | 0 mm | - | 363 W/m² | - |
| 1788442131 | 29.44° C | 79% | 1017.9 hPa | 0 mm | - | 313 W/m² | - |
| 1788441822 | 28.33° C | 87% | 1018 hPa | 0 mm | - | 284 W/m² | - |
| 1788441521 | 28.33° C | 85% | 1018 hPa | 0 mm | - | 288 W/m² | - |
| 1788441221 | 27.22° C | 87% | 1017.8 hPa | 0 mm | - | 243 W/m² | - |
| 1788440920 | 26.67° C | 90% | 1017.9 hPa | 0 mm | - | 177 W/m² | - |
| 1788440616 | 26.11° C | 91% | 1017.9 hPa | 0 mm | - | 48 W/m² | - |
| 1788440314 | 26.11° C | 93% | 1018 hPa | 0 mm | - | 31 W/m² | - |
| 1788440010 | 25.56° C | 94% | 1017.9 hPa | 0 mm | - | 32 W/m² | - |
| 1788439708 | 25° C | 96% | 1018.2 hPa | 0 mm | - | 30 W/m² | - |
| 1788439404 | 25° C | 98% | 1018.1 hPa | 0 mm | - | 62 W/m² | - |
| 1788439103 | 24.44° C | 99% | 1018.1 hPa | 0 mm | - | 94 W/m² | - |
* Rain latest hour (hover to see other rain measurements)
** Current wind speed in m/s (hover to see current wind gust speed)